Theta_e
352 349 346 335 317 317 312 319 326 325 325 328 327 326 324 329 325 312 338 346 345 348 355 358 363 362 362 363 362 361 359 361 361 360 360 359 360 358 359 358 358 359 360 360 360 361 362 362 362
348 345 340 333 314 312 313 321 322 327 332 329 331 331 329 325 334 335 339 348 349 352 354 357 363 364 363 363 362 360 360 363 360 361 361 360 361 359 358 360 359 358 359 360 360 360 361 361 360
347 344 332 325 318 313 313 322 327 331 333 331 330 334 331 328 335 337 345 349 351 352 354 356 363 364 363 362 362 361 361 362 360 362 359 360 360 360 360 360 359 359 359 359 359 360 361 360 359
339 337 332 319 316 320 320 324 328 329 333 334 332 326 335 339 336 343 348 351 352 353 354 360 362 362 363 363 362 362 361 361 360 361 360 360 360 358 359 358 358 359 358 359 359 359 359 360 359
341 331 321 319 320 322 325 327 328 328 330 331 331 325 328 339 347 348 349 351 350 351 355 357 364 362 363 363 362 362 361 361 361 359 360 359 360 359 359 359 357 357 357 357 357 358 359 359 359
328 330 317 315 320 324 328 333 332 331 331 331 328 328 329 344 345 348 350 350 353 354 356 358 362 362 362 362 363 362 361 361 361 360 360 359 359 359 358 358 358 357 356 356 357 358 358 359 359
324 323 316 320 318 321 329 336 330 328 329 328 333 324 334 339 345 349 349 351 354 355 354 355 357 360 362 362 362 362 361 362 361 360 360 359 359 359 359 358 358 357 357 356 356 357 357 358 358
330 328 320 319 319 321 332 333 335 331 329 335 334 324 327 337 347 348 348 350 351 353 353 352 353 355 355 356 362 362 362 362 360 361 359 359 358 359 360 361 360 358 357 357 357 357 357 356 358
337 322 315 318 320 324 332 329 337 340 331 331 338 332 336 343 346 344 345 346 349 350 349 350 351 352 353 354 357 360 362 361 360 359 360 356 348 351 353 358 359 358 358 357 357 357 357 357 357
329 321 320 326 328 327 331 332 334 331 331 332 331 335 341 342 341 339 339 339 343 346 348 349 349 350 352 357 354 353 355 354 353 351 348 347 347 347 352 356 359 358 358 358 358 357 358 353 347
328 320 326 327 332 334 331 332 335 330 327 332 328 332 337 338 338 338 338 340 342 346 350 348 348 350 351 352 351 350 351 351 350 349 347 347 347 349 349 349 348 348 354 350 350 350 347 346 348
320 325 329 329 334 332 330 333 331 332 334 337 337 336 336 335 337 337 336 337 339 343 346 348 349 348 348 351 350 348 350 350 347 346 346 345 344 344 345 346 346 346 347 345 345 344 346 347 345
320 322 322 324 333 333 332 329 331 332 339 342 338 335 334 334 337 339 339 339 339 341 344 347 349 346 347 349 348 348 348 349 347 345 347 345 342 341 344 345 346 344 346 344 342 341 343 343 343
320 320 319 318 331 332 328 329 330 332 338 339 339 333 333 334 335 337 337 338 338 340 342 346 346 344 346 346 346 347 347 348 345 345 347 346 342 343 345 344 343 343 343 346 342 341 343 344 343
319 313 311 328 329 330 331 324 325 332 334 336 335 332 332 334 335 334 336 338 340 340 341 344 344 345 346 347 346 345 345 347 344 344 344 346 344 343 344 343 341 342 342 344 343 342 344 344 341
305 302 298 325 329 330 329 318 327 336 332 331 333 332 333 332 334 334 335 339 340 340 340 343 347 345 346 344 345 343 344 345 344 343 341 348 347 346 346 341 342 344 344 344 342 340 341 339 338
300 296 298 315 327 328 325 319 328 335 335 332 332 332 332 331 333 332 332 337 339 340 341 342 344 344 344 344 344 345 343 344 343 344 345 348 347 348 346 343 344 345 344 342 337 340 338 337 337
296 296 296 299 320 323 321 320 327 332 333 333 332 331 332 329 331 333 332 336 339 340 341 342 344 344 343 345 341 342 346 342 344 345 346 350 348 348 341 342 344 344 340 339 340 336 337 336 337
300 298 298 302 308 319 319 320 323 329 331 331 331 330 330 330 332 334 334 338 338 340 340 341 342 340 343 340 338 338 340 342 343 344 348 349 349 347 343 341 343 342 340 341 339 336 336 334 334
301 298 298 303 310 310 314 320 323 328 330 331 331 330 329 330 329 332 333 337 337 339 339 341 342 339 342 342 342 341 341 343 345 346 348 348 350 350 347 346 346 339 339 339 337 334 336 335 334
298 296 298 299 309 320 319 315 319 325 328 328 331 334 332 330 329 330 332 335 336 337 337 341 341 339 342 341 343 342 341 341 344 344 346 350 349 351 349 347 347 344 340 339 335 337 336 331 334
294 303 304 301 295 291 314 300 318 321 323 324 328 332 332 332 332 330 331 334 335 336 338 341 341 339 342 342 342 341 339 336 339 344 343 349 352 352 348 349 346 344 343 342 342 345 338 332 330
301 305 301 300 294 298 302 297 305 319 317 321 326 331 333 332 334 330 331 334 336 337 338 339 340 339 342 342 342 342 339 338 338 343 343 346 349 351 353 350 347 345 343 343 343 343 342 340 336
306 299 295 292 290 286 291 291 296 313 316 320 325 331 333 333 334 332 333 335 335 336 338 340 340 339 342 342 340 341 341 340 339 339 341 344 347 349 349 351 349 346 344 344 344 343 344 343 342
297 291 285 285 285 285 289 290 293 311 321 321 323 329 333 334 333 331 330 333 333 334 336 341 340 339 341 342 340 340 341 341 341 339 341 343 345 347 348 348 348 346 345 345 346 346 344 343 343
293 291 286 282 282 287 290 288 294 301 311 323 327 329 333 332 333 333 331 333 334 334 335 340 340 339 341 341 342 340 339 342 342 343 342 345 347 350 349 349 348 348 347 348 347 346 347 346 345
291 289 291 286 284 286 288 293 299 308 311 318 323 327 330 331 332 334 331 332 334 335 335 339 340 340 340 341 342 342 341 340 341 344 343 346 346 350 349 351 348 350 349 348 347 346 344 346 344
292 293 287 287 282 281 286 288 291 301 305 317 318 324 329 331 330 332 333 332 334 335 337 339 341 340 341 341 342 342 344 344 341 342 344 344 346 347 348 351 348 349 350 349 346 345 346 346 346
288 286 285 285 285 282 282 287 300 303 305 307 315 321 324 327 329 332 334 333 334 336 336 337 340 340 341 341 342 341 341 342 343 342 342 345 346 346 346 350 350 349 349 349 347 345 345 345 345
291 286 283 281 281 284 285 288 300 301 307 317 321 324 325 328 330 333 334 334 334 335 336 336 338 341 341 342 341 340 340 341 343 343 341 341 343 344 347 347 350 350 349 348 347 346 347 344 344
Wind_Speed
6 5 2 1 2 2 4 3 4 3 3 4 18 5 5 4 1 4 6 8 15 11 8 9 12 13 14 13 13 12 11 10 12 10 11 10 10 11 11 11 11 10 11 12 12 13 12 13 14
5 6 1 1 1 2 1 1 7 4 4 18 8 12 3 3 4 12 7 12 16 11 6 7 12 12 15 15 14 12 11 10 11 10 10 8 10 10 9 10 11 10 10 12 13 11 12 12 13
8 4 1 2 3 4 3 5 4 5 6 8 5 9 4 4 12 13 12 16 15 10 7 9 14 14 16 15 14 13 11 11 11 10 10 9 10 10 10 12 11 10 12 12 12 11 11 11 11
5 1 2 1 8 5 5 6 8 5 2 8 10 8 4 10 14 9 17 17 13 10 7 13 15 15 15 16 14 13 11 12 11 11 10 10 10 11 11 12 11 10 11 12 12 10 11 11 11
2 1 2 3 5 2 5 9 6 3 3 8 1 5 8 4 17 18 17 15 13 8 6 10 13 14 14 16 14 13 13 11 12 11 10 10 10 10 10 11 10 10 10 11 10 10 11 11 11
0 0 2 3 5 2 4 5 8 4 4 7 11 11 3 16 17 15 15 13 12 11 6 7 14 15 14 14 13 13 13 12 11 10 10 9 10 10 10 11 10 10 10 10 10 10 10 10 11
1 1 3 3 4 2 3 1 6 9 7 7 8 5 10 17 14 13 14 13 11 9 7 5 6 10 14 14 13 13 12 12 11 10 10 11 10 11 11 10 11 11 11 10 10 10 10 10 10
2 2 3 2 1 2 8 5 8 7 7 11 8 5 13 15 15 13 12 11 9 7 7 5 5 5 5 6 13 13 12 11 10 11 9 10 10 11 11 8 10 11 11 11 11 10 8 8 9
2 2 3 1 2 2 9 5 2 3 11 7 5 17 18 20 17 14 13 12 9 6 5 5 5 5 5 4 7 11 12 11 11 9 8 6 4 4 6 6 9 10 10 11 11 10 9 8 8
4 2 4 3 4 7 12 7 9 6 5 4 16 18 21 21 17 17 14 14 12 11 6 5 6 5 5 4 5 4 5 3 3 4 4 3 4 3 3 5 8 8 9 10 10 10 9 6 3
5 4 2 3 6 10 12 10 4 13 5 8 20 21 22 21 17 16 15 15 14 12 8 7 6 5 5 4 3 2 2 3 2 4 4 3 2 1 1 2 2 2 4 3 4 4 2 4 2
3 7 11 4 7 8 11 7 7 8 5 12 10 20 19 22 17 16 14 13 12 12 10 9 6 6 4 4 3 2 2 3 2 3 4 4 3 1 2 1 1 2 1 2 3 2 2 1 0
6 11 6 8 9 8 11 6 6 7 9 8 15 21 19 17 17 15 15 11 11 11 9 10 7 6 5 5 3 2 2 2 3 3 4 4 4 3 2 2 2 1 1 0 2 2 2 1 3
3 6 10 10 10 10 10 5 5 8 10 6 16 20 19 19 16 13 12 13 12 10 10 8 8 6 6 4 5 4 3 3 3 3 4 5 4 4 3 2 1 1 2 1 2 2 3 3 3
10 10 6 4 9 6 14 5 5 10 13 15 16 19 18 19 15 16 15 16 16 11 11 9 8 7 7 6 5 4 3 3 4 4 4 5 5 5 4 3 2 2 1 1 2 3 1 3 3
3 4 3 3 8 7 4 4 7 10 14 12 17 16 16 19 19 15 15 15 14 11 12 10 10 8 8 6 5 4 4 4 4 3 3 5 5 5 4 4 2 2 2 2 1 2 0 1 1
7 1 2 2 5 6 5 2 8 11 10 13 15 16 16 16 18 15 15 16 16 14 13 11 9 9 8 6 5 5 6 4 4 4 3 5 6 6 4 2 3 2 2 1 2 1 1 2 1
2 2 2 1 6 4 6 2 8 9 11 10 14 17 17 14 18 15 16 17 16 14 14 14 10 10 8 5 3 1 2 2 4 4 4 5 4 5 4 3 2 3 2 2 1 2 1 2 2
3 3 3 4 4 5 15 7 12 11 10 12 13 18 17 16 14 14 16 17 15 13 14 14 13 9 8 4 4 2 3 2 2 3 5 5 5 5 5 3 3 3 3 3 3 2 2 1 1
2 1 5 7 3 7 7 6 6 7 6 7 10 15 17 15 12 14 17 17 17 18 17 15 13 10 9 5 3 3 2 1 1 3 3 5 5 5 5 5 5 4 3 3 2 2 2 1 2
4 4 4 6 5 3 8 5 5 4 2 1 4 5 9 17 15 15 17 18 17 16 15 16 14 12 9 7 5 4 4 3 2 1 2 4 5 5 4 4 4 5 3 3 2 3 4 3 0
6 8 8 5 2 2 1 2 5 6 11 7 9 9 10 13 15 14 20 20 20 19 16 16 14 12 8 9 7 6 5 4 3 3 2 4 5 5 4 4 4 5 3 4 2 2 2 3 2
11 6 7 6 3 4 3 6 3 10 16 19 14 14 16 16 18 19 21 23 22 19 17 15 14 12 10 10 10 6 5 3 2 2 3 4 4 5 5 5 6 5 4 4 4 3 3 1 2
6 3 5 5 4 3 5 5 6 6 18 14 15 18 19 19 13 15 19 19 19 18 17 15 16 14 11 11 9 10 9 6 4 3 4 4 3 4 5 5 5 5 4 5 4 3 4 3 2
5 7 2 3 4 6 3 5 9 16 13 16 22 21 21 19 13 11 19 19 18 19 18 15 17 16 13 12 11 11 10 8 8 7 5 5 3 3 6 5 5 4 4 5 5 4 4 4 2
2 8 7 5 5 3 2 5 1 5 10 12 16 17 16 18 15 16 21 21 21 21 19 19 17 16 14 13 12 9 9 7 5 6 5 5 5 6 6 6 6 6 5 4 4 3 3 3 3
2 5 1 9 4 4 3 5 5 11 13 5 12 11 16 18 17 18 17 20 21 21 21 20 18 17 16 16 11 10 9 8 8 7 5 5 5 4 6 6 7 6 6 5 4 3 4 4 4
7 2 3 5 5 3 4 3 3 11 13 12 3 9 10 12 9 11 16 19 19 19 20 20 21 21 19 17 14 12 12 9 7 6 7 7 6 4 6 7 7 6 6 6 5 3 3 4 4
8 7 6 3 4 6 3 1 5 7 8 8 10 7 9 15 13 10 12 17 18 19 19 19 18 19 16 16 15 14 11 9 8 7 7 7 6 6 6 7 7 7 7 6 6 6 5 6 5
10 5 4 5 5 2 2 2 8 10 8 11 14 14 12 15 10 5 3 7 7 9 13 16 17 17 16 15 15 15 13 11 11 10 8 7 7 6 7 7 7 7 8 7 7 7 6 6 6
Wind_Direction
156 144 176 140 42 116 264 280 334 215 152 156 153 151 164 68 152 184 143 142 131 144 159 157 149 150 150 143 135 130 127 128 121 118 107 107 114 113 112 114 118 117 121 112 113 115 114 109 111
144 157 257 126 151 282 290 169 252 332 313 136 139 122 73 93 87 125 121 145 134 143 146 152 144 146 149 149 143 137 138 134 126 123 120 119 112 113 113 114 116 120 125 121 114 111 109 108 112
168 220 185 188 199 204 229 281 280 311 162 142 88 42 66 96 114 139 131 135 131 138 137 149 143 144 146 146 145 147 146 138 132 125 121 116 112 114 106 109 110 111 114 109 109 112 108 110 109
177 148 312 277 246 199 206 196 227 317 56 61 108 71 63 111 139 135 135 130 125 135 137 149 148 147 149 149 152 153 147 143 139 126 134 131 125 121 117 112 109 107 109 116 110 113 115 110 108
326 100 278 260 275 223 209 204 168 274 57 93 11 94 109 121 111 127 130 129 130 129 142 148 151 149 148 146 153 152 150 147 136 137 143 128 127 121 123 108 106 104 101 102 111 114 110 104 106
19 301 267 270 325 56 305 215 182 227 107 107 106 107 99 126 126 137 129 129 135 135 134 154 156 155 151 152 151 155 144 144 143 140 134 136 131 126 124 115 118 117 116 114 112 109 102 92 89
176 175 248 270 108 317 180 12 119 111 138 127 138 88 123 129 136 132 127 127 135 135 127 129 141 153 154 148 150 147 150 144 142 142 139 142 145 136 126 124 116 109 109 114 115 112 107 98 90
192 220 281 346 306 154 156 163 136 137 83 111 136 155 150 141 134 125 124 127 131 131 126 131 126 111 122 139 147 149 151 146 146 142 142 140 142 139 127 122 121 114 115 112 111 112 106 96 97
206 280 270 245 160 129 152 120 5 359 132 133 347 128 136 131 128 122 127 140 136 130 127 120 119 115 125 141 154 149 148 148 147 143 135 89 72 93 115 142 126 119 119 119 119 119 112 102 104
190 212 246 133 136 149 160 148 140 124 149 89 109 118 129 135 140 140 148 153 156 156 153 139 136 143 149 146 110 128 159 111 120 114 108 105 103 128 155 138 129 124 119 124 129 125 124 99 61
176 222 189 167 118 155 154 134 117 138 188 127 144 143 146 148 155 155 160 166 165 160 162 156 155 154 160 121 141 145 124 127 127 143 144 133 94 67 81 51 59 59 96 64 94 92 95 125 94
297 253 249 256 173 131 146 120 121 165 124 145 189 147 152 158 163 160 157 167 164 168 167 162 163 161 161 141 152 171 159 145 163 180 177 133 133 122 142 132 172 122 124 110 86 100 140 90 44
238 269 266 260 188 131 137 160 126 115 125 181 194 156 161 165 167 168 166 158 157 170 165 170 161 169 152 158 149 174 194 164 185 180 178 143 140 164 195 182 193 174 328 239 133 99 50 66 14
249 272 283 259 153 146 136 142 147 161 155 168 193 165 161 170 171 161 164 159 165 175 169 167 167 169 153 161 176 185 185 199 199 198 194 175 153 173 195 186 241 236 254 263 313 354 327 341 13
257 273 291 60 138 140 124 126 189 163 167 163 177 161 164 172 169 170 171 168 171 178 168 171 165 163 165 178 188 181 201 192 198 189 186 178 179 178 191 160 221 220 281 205 327 316 305 352 20
282 30 15 178 157 153 195 161 173 173 173 186 175 170 159 176 178 172 175 171 177 164 173 168 175 174 178 175 190 199 188 185 196 175 193 191 186 168 194 167 181 190 223 234 168 246 276 14 90
357 260 346 105 224 153 212 197 174 183 165 168 176 184 165 173 185 169 175 176 178 168 165 170 174 171 184 175 197 205 185 187 176 170 183 213 176 183 172 181 182 159 197 219 200 258 157 153 180
169 5 5 281 189 141 198 262 145 188 166 176 180 191 176 176 189 173 170 178 179 172 174 170 173 170 172 149 146 108 145 189 164 173 190 201 180 184 163 171 176 131 173 210 171 173 58 109 183
154 194 280 222 197 172 206 170 177 190 188 189 194 193 184 175 180 176 168 169 173 171 171 174 169 173 154 161 138 128 171 164 165 170 189 202 184 181 162 156 160 136 170 205 185 119 124 34 105
230 301 300 296 313 189 185 182 179 190 207 191 198 195 190 182 170 160 171 168 172 175 179 173 180 174 172 157 142 134 144 164 171 167 186 208 180 186 175 169 166 151 138 142 130 106 109 105 169
262 178 218 232 312 48 105 76 171 244 251 295 250 256 213 195 189 163 170 174 172 176 181 180 179 179 178 158 119 89 67 48 68 154 191 209 199 195 187 179 173 157 153 159 158 155 135 136 199
262 182 228 241 107 271 96 177 188 215 249 243 228 221 216 204 187 174 172 177 178 184 186 181 176 181 181 161 152 144 162 161 208 175 191 199 201 203 194 188 180 161 164 158 162 138 115 114 163
235 179 181 205 180 90 345 81 235 177 238 241 214 214 218 207 194 181 185 181 182 178 185 183 180 183 183 176 167 154 157 183 176 168 191 207 202 203 206 204 183 183 172 178 176 152 166 150 144
231 138 57 51 109 58 237 118 279 192 224 226 209 214 214 218 214 187 186 182 184 182 183 181 178 188 182 177 172 168 165 172 169 200 199 208 208 205 220 213 207 195 182 177 182 167 169 185 132
101 72 339 33 48 193 216 89 230 237 257 227 204 203 207 207 198 198 182 184 185 183 184 185 182 188 190 184 178 179 182 175 184 193 193 181 200 206 216 200 211 210 204 189 176 173 186 193 174
198 152 152 168 169 195 174 201 317 303 268 237 216 215 210 197 202 205 189 184 187 187 183 183 187 189 190 192 189 182 180 187 186 188 187 206 204 212 181 196 201 213 216 216 184 180 195 193 206
297 41 242 104 11 74 263 295 6 357 7 286 213 207 213 208 208 206 189 188 189 188 189 185 184 193 190 193 193 187 186 180 193 186 189 204 210 199 183 192 200 201 201 208 201 209 214 196 221
79 318 52 10 122 158 319 62 302 343 351 352 337 234 216 214 207 216 203 194 191 192 192 189 185 190 190 191 195 190 192 188 183 177 191 202 214 198 178 189 199 199 196 201 197 214 244 212 233
15 10 11 110 86 143 140 342 331 319 324 331 322 272 219 209 211 205 212 198 196 196 192 193 193 190 191 195 196 196 191 179 169 190 197 202 200 191 198 198 195 200 199 194 199 217 220 237 235
93 64 89 98 328 13 147 229 343 321 320 4 356 337 258 217 198 171 203 219 230 209 202 197 193 192 195 194 198 200 197 181 185 194 195 189 207 192 203 199 197 202 210 193 196 211 212 217 235